Year,Month,Day,Hour,Minute,Value (Times are PST for windspeed in km/hr)
2015,08,29,00,00,3.60
2015,08,29,00,01,4.40
2015,08,29,00,02,2.60
2015,08,29,00,03,3.00
2015,08,29,00,04,2.90
2015,08,29,00,05,3.50
2015,08,29,00,06,0.00
2015,08,29,00,07,5.00
2015,08,29,00,08,4.80
2015,08,29,00,09,5.00
2015,08,29,00,10,7.20
2015,08,29,00,11,8.10
2015,08,29,00,12,8.80
2015,08,29,00,13,6.20
2015,08,29,00,14,5.60
2015,08,29,00,15,4.60
2015,08,29,00,16,6.30
2015,08,29,00,17,5.30
2015,08,29,00,18,2.00
2015,08,29,00,19,0.60
2015,08,29,00,20,0.10
2015,08,29,00,21,1.10
2015,08,29,00,22,2.80
2015,08,29,00,23,7.60
2015,08,29,00,24,7.40
2015,08,29,00,25,8.70
2015,08,29,00,26,5.80
2015,08,29,00,27,6.90
2015,08,29,00,28,4.20
2015,08,29,00,29,0.10
2015,08,29,00,30,3.50
2015,08,29,00,31,4.80
2015,08,29,00,32,3.70
2015,08,29,00,33,8.30
2015,08,29,00,34,5.00
2015,08,29,00,35,2.00
2015,08,29,00,36,2.00
2015,08,29,00,37,1.70
2015,08,29,00,38,4.80
2015,08,29,00,39,3.70
2015,08,29,00,40,6.50
2015,08,29,00,41,6.10
2015,08,29,00,42,11.20
2015,08,29,00,43,8.40
2015,08,29,00,44,11.80
2015,08,29,00,45,9.90
2015,08,29,00,46,10.80
2015,08,29,00,47,10.00
2015,08,29,00,48,4.00
2015,08,29,00,49,6.00
2015,08,29,00,50,7.90
2015,08,29,00,51,6.50
2015,08,29,00,52,10.80
2015,08,29,00,53,8.00
2015,08,29,00,54,1.20
2015,08,29,00,55,1.50
2015,08,29,00,56,3.90
2015,08,29,00,57,6.50
2015,08,29,00,58,8.80
2015,08,29,00,59,1.50
2015,08,29,01,00,6.60
2015,08,29,01,01,6.30
2015,08,29,01,02,9.20
2015,08,29,01,03,10.00
2015,08,29,01,04,8.60
2015,08,29,01,05,8.50
2015,08,29,01,06,9.00
2015,08,29,01,07,4.20
2015,08,29,01,08,8.30
2015,08,29,01,09,5.50
2015,08,29,01,10,10.80
2015,08,29,01,11,9.60
2015,08,29,01,12,10.50
2015,08,29,01,13,12.70
2015,08,29,01,14,6.00
2015,08,29,01,15,7.00
2015,08,29,01,16,12.70
2015,08,29,01,17,5.50
2015,08,29,01,18,12.30
2015,08,29,01,19,10.40
2015,08,29,01,20,11.30
2015,08,29,01,21,4.70
2015,08,29,01,22,8.90
2015,08,29,01,23,6.70
2015,08,29,01,24,2.00
2015,08,29,01,25,5.70
2015,08,29,01,26,3.80
2015,08,29,01,27,7.80
2015,08,29,01,28,8.20
2015,08,29,01,29,6.50
2015,08,29,01,30,5.80
2015,08,29,01,31,9.20
2015,08,29,01,32,4.50
2015,08,29,01,33,6.60
2015,08,29,01,34,4.80
2015,08,29,01,35,5.30
2015,08,29,01,36,4.80
2015,08,29,01,37,8.10
2015,08,29,01,38,5.30
2015,08,29,01,39,4.60
2015,08,29,01,40,7.60
2015,08,29,01,41,11.10
2015,08,29,01,42,6.70
2015,08,29,01,43,6.90
2015,08,29,01,44,3.30
2015,08,29,01,45,6.60
2015,08,29,01,46,5.00
2015,08,29,01,47,6.70
2015,08,29,01,48,6.00
2015,08,29,01,49,2.50
2015,08,29,01,50,1.00
2015,08,29,01,51,5.60
2015,08,29,01,52,2.20
2015,08,29,01,53,2.90
2015,08,29,01,54,2.20
2015,08,29,01,55,0.20
2015,08,29,01,56,0.20
2015,08,29,01,57,1.50
2015,08,29,01,58,0.00
2015,08,29,01,59,0.10
2015,08,29,02,00,0.00
2015,08,29,02,01,1.50
2015,08,29,02,02,2.10
2015,08,29,02,03,6.30
2015,08,29,02,04,1.80
2015,08,29,02,05,0.40
2015,08,29,02,06,0.30
2015,08,29,02,07,2.20
2015,08,29,02,08,1.80
2015,08,29,02,09,5.20
2015,08,29,02,10,5.80
2015,08,29,02,11,0.70
2015,08,29,02,12,1.40
2015,08,29,02,13,4.80
2015,08,29,02,14,5.00
2015,08,29,02,15,6.10
2015,08,29,02,16,2.30
2015,08,29,02,17,0.10
2015,08,29,02,18,0.70
2015,08,29,02,19,4.80
2015,08,29,02,20,4.30
2015,08,29,02,21,11.30
2015,08,29,02,22,5.90
2015,08,29,02,23,0.10
2015,08,29,02,24,5.00
2015,08,29,02,25,4.40
2015,08,29,02,26,2.40
2015,08,29,02,27,2.40
2015,08,29,02,28,0.50
2015,08,29,02,29,6.40
2015,08,29,02,30,5.70
2015,08,29,02,31,6.00
2015,08,29,02,32,9.20
2015,08,29,02,33,9.40
2015,08,29,02,34,9.40
2015,08,29,02,35,8.40
2015,08,29,02,36,7.60
2015,08,29,02,37,5.80
2015,08,29,02,38,4.10
2015,08,29,02,39,3.30
2015,08,29,02,40,4.10
2015,08,29,02,41,6.30
2015,08,29,02,42,8.60
2015,08,29,02,43,4.90
2015,08,29,02,44,7.90
2015,08,29,02,45,12.20
2015,08,29,02,46,12.90
2015,08,29,02,47,11.50
2015,08,29,02,48,17.30
2015,08,29,02,49,11.80
2015,08,29,02,50,14.20
2015,08,29,02,51,12.30
2015,08,29,02,52,12.70
2015,08,29,02,53,7.20
2015,08,29,02,54,10.80
2015,08,29,02,55,6.80
2015,08,29,02,56,14.40
2015,08,29,02,57,14.00
2015,08,29,02,58,12.50
2015,08,29,02,59,13.30
2015,08,29,03,00,17.30
2015,08,29,03,01,15.30
2015,08,29,03,02,15.70
2015,08,29,03,03,13.40
2015,08,29,03,04,13.40
2015,08,29,03,05,12.20
2015,08,29,03,06,11.20
2015,08,29,03,07,11.10
2015,08,29,03,08,5.30
2015,08,29,03,09,13.70
2015,08,29,03,10,7.30
2015,08,29,03,11,11.70
2015,08,29,03,12,9.80
2015,08,29,03,13,10.60
2015,08,29,03,14,10.90
2015,08,29,03,15,10.70
2015,08,29,03,16,9.10
2015,08,29,03,17,12.70
2015,08,29,03,18,9.00
2015,08,29,03,19,5.50
2015,08,29,03,20,5.00
2015,08,29,03,21,9.00
2015,08,29,03,22,9.80
2015,08,29,03,23,7.70
2015,08,29,03,24,9.20
2015,08,29,03,25,13.80
2015,08,29,03,26,11.30
2015,08,29,03,27,10.20
2015,08,29,03,28,10.30
2015,08,29,03,29,11.90
2015,08,29,03,30,6.70
2015,08,29,03,31,9.30
2015,08,29,03,32,11.30
2015,08,29,03,33,10.40
2015,08,29,03,34,9.70
2015,08,29,03,35,13.10
2015,08,29,03,36,10.30
2015,08,29,03,37,7.30
2015,08,29,03,38,11.20
2015,08,29,03,39,12.10
2015,08,29,03,40,11.40
2015,08,29,03,41,7.60
2015,08,29,03,42,8.90
2015,08,29,03,43,11.90
2015,08,29,03,44,7.10
2015,08,29,03,45,9.30
2015,08,29,03,46,5.30
2015,08,29,03,47,3.10
2015,08,29,03,48,5.80
2015,08,29,03,49,6.60
2015,08,29,03,50,5.70
2015,08,29,03,51,4.00
2015,08,29,03,52,4.40
2015,08,29,03,53,3.40
2015,08,29,03,54,8.50
2015,08,29,03,55,8.80
2015,08,29,03,56,4.10
2015,08,29,03,57,10.50
2015,08,29,03,58,10.50
2015,08,29,03,59,10.10
2015,08,29,04,00,14.00
2015,08,29,04,01,11.30
2015,08,29,04,02,4.10
2015,08,29,04,03,5.70
2015,08,29,04,04,7.20
2015,08,29,04,05,10.40
2015,08,29,04,06,10.90
2015,08,29,04,07,9.50
2015,08,29,04,08,4.70
2015,08,29,04,09,12.40
2015,08,29,04,10,15.20
2015,08,29,04,11,16.90
2015,08,29,04,12,11.70
2015,08,29,04,13,14.30
2015,08,29,04,14,16.00
2015,08,29,04,15,11.00
2015,08,29,04,16,13.80
2015,08,29,04,17,9.70
2015,08,29,04,18,4.80
2015,08,29,04,19,10.90
2015,08,29,04,20,11.60
2015,08,29,04,21,11.50
2015,08,29,04,22,10.20
2015,08,29,04,23,9.70
2015,08,29,04,24,10.70
2015,08,29,04,25,11.60
2015,08,29,04,26,10.40
2015,08,29,04,27,10.30
2015,08,29,04,28,11.60
2015,08,29,04,29,9.60
2015,08,29,04,30,9.40
2015,08,29,04,31,15.80
2015,08,29,04,32,11.20
2015,08,29,04,33,9.60
2015,08,29,04,34,13.80
2015,08,29,04,35,13.20
2015,08,29,04,36,12.90
2015,08,29,04,37,11.60
2015,08,29,04,38,11.60
2015,08,29,04,39,12.90
2015,08,29,04,40,14.00
2015,08,29,04,41,3.10
2015,08,29,04,42,4.20
2015,08,29,04,43,8.60
2015,08,29,04,44,9.90
2015,08,29,04,45,11.20
2015,08,29,04,46,12.60
2015,08,29,04,47,8.30
2015,08,29,04,48,8.90
2015,08,29,04,49,9.60
2015,08,29,04,50,10.10
2015,08,29,04,51,14.50
2015,08,29,04,52,10.20
2015,08,29,04,53,7.80
2015,08,29,04,54,10.30
2015,08,29,04,55,4.80
2015,08,29,04,56,8.20
2015,08,29,04,57,7.90
2015,08,29,04,58,15.20
2015,08,29,04,59,8.20
2015,08,29,05,00,10.80
2015,08,29,05,01,8.30
2015,08,29,05,02,13.20
2015,08,29,05,03,11.30
2015,08,29,05,04,15.40
2015,08,29,05,05,12.70
2015,08,29,05,06,9.20
2015,08,29,05,07,9.70
2015,08,29,05,08,7.80
2015,08,29,05,09,11.30
2015,08,29,05,10,9.70
2015,08,29,05,11,6.90
2015,08,29,05,12,8.30
2015,08,29,05,13,7.00
2015,08,29,05,14,10.90
2015,08,29,05,15,9.00
2015,08,29,05,16,11.80
2015,08,29,05,17,11.80
2015,08,29,05,18,11.50
2015,08,29,05,19,8.20
2015,08,29,05,20,6.90
2015,08,29,05,21,3.80
2015,08,29,05,22,2.00
2015,08,29,05,23,6.80
2015,08,29,05,24,5.80
2015,08,29,05,25,6.60
2015,08,29,05,26,8.50
2015,08,29,05,27,11.80
2015,08,29,05,28,7.50
2015,08,29,05,29,11.60
2015,08,29,05,30,8.10
2015,08,29,05,31,3.70
2015,08,29,05,32,0.90
2015,08,29,05,33,3.20
2015,08,29,05,34,6.30
2015,08,29,05,35,6.70
2015,08,29,05,36,2.90
2015,08,29,05,37,3.30
2015,08,29,05,38,10.80
2015,08,29,05,39,5.40
2015,08,29,05,40,1.90
2015,08,29,05,41,4.20
2015,08,29,05,42,2.70
2015,08,29,05,43,1.10
2015,08,29,05,44,3.60
2015,08,29,05,45,1.10
2015,08,29,05,46,2.50
2015,08,29,05,47,1.00
2015,08,29,05,48,0.00
2015,08,29,05,49,0.00
2015,08,29,05,50,0.00
2015,08,29,05,51,0.00
2015,08,29,05,52,3.80
2015,08,29,05,53,6.90
2015,08,29,05,54,8.10
2015,08,29,05,55,10.20
2015,08,29,05,56,12.00
2015,08,29,05,57,10.50
2015,08,29,05,58,11.90
2015,08,29,05,59,10.10
2015,08,29,06,00,12.50
2015,08,29,06,01,10.00
2015,08,29,06,02,12.30
2015,08,29,06,03,10.10
2015,08,29,06,04,7.00
2015,08,29,06,05,10.50
2015,08,29,06,06,12.10
2015,08,29,06,07,11.10
2015,08,29,06,08,8.40
2015,08,29,06,09,9.30
2015,08,29,06,10,3.90
2015,08,29,06,11,0.00
2015,08,29,06,12,2.70
2015,08,29,06,13,3.20
2015,08,29,06,14,3.60
2015,08,29,06,15,6.70
2015,08,29,06,16,2.10
2015,08,29,06,17,0.00
2015,08,29,06,18,0.20
2015,08,29,06,19,0.10
2015,08,29,06,20,0.40
2015,08,29,06,21,0.00
2015,08,29,06,22,0.20
2015,08,29,06,23,0.10
2015,08,29,06,24,1.50
2015,08,29,06,25,6.40
2015,08,29,06,26,6.80
2015,08,29,06,27,4.80
2015,08,29,06,28,3.10
2015,08,29,06,29,6.60
2015,08,29,06,30,5.00
2015,08,29,06,31,1.90
2015,08,29,06,32,1.40
2015,08,29,06,33,2.00
2015,08,29,06,34,2.40
2015,08,29,06,35,0.20
2015,08,29,06,36,0.10
2015,08,29,06,37,0.10
2015,08,29,06,38,2.90
2015,08,29,06,39,4.20
2015,08,29,06,40,5.70
2015,08,29,06,41,3.20
2015,08,29,06,42,4.40
2015,08,29,06,43,4.80
2015,08,29,06,44,6.10
2015,08,29,06,45,4.60
2015,08,29,06,46,7.00
2015,08,29,06,47,7.70
2015,08,29,06,48,9.50
2015,08,29,06,49,7.50
2015,08,29,06,50,6.00
2015,08,29,06,51,5.30
2015,08,29,06,52,8.70
2015,08,29,06,53,5.80
2015,08,29,06,54,6.40
2015,08,29,06,55,4.20
2015,08,29,06,56,6.10
2015,08,29,06,57,8.60
2015,08,29,06,58,11.20
2015,08,29,06,59,13.30
2015,08,29,07,00,9.90
2015,08,29,07,01,10.40
2015,08,29,07,02,9.30
2015,08,29,07,03,6.70
2015,08,29,07,04,8.90
2015,08,29,07,05,8.80
2015,08,29,07,06,6.80
2015,08,29,07,07,7.20
2015,08,29,07,08,8.70
2015,08,29,07,09,8.60
2015,08,29,07,10,11.30
2015,08,29,07,11,10.90
2015,08,29,07,12,11.60
2015,08,29,07,13,11.20
2015,08,29,07,14,12.50
2015,08,29,07,15,8.20
2015,08,29,07,16,9.00
2015,08,29,07,17,10.80
2015,08,29,07,18,11.70
2015,08,29,07,19,10.90
2015,08,29,07,20,7.60
2015,08,29,07,21,8.60
2015,08,29,07,22,9.80
2015,08,29,07,23,13.30
2015,08,29,07,24,9.60
2015,08,29,07,25,10.30
2015,08,29,07,26,11.70
2015,08,29,07,27,7.80
2015,08,29,07,28,6.00
2015,08,29,07,29,12.40
2015,08,29,07,30,9.60
2015,08,29,07,31,14.20
2015,08,29,07,32,7.10
2015,08,29,07,33,10.70
2015,08,29,07,34,14.10
2015,08,29,07,35,7.90
2015,08,29,07,36,6.30
2015,08,29,07,37,8.50
2015,08,29,07,38,14.80
2015,08,29,07,39,7.80
2015,08,29,07,40,8.30
2015,08,29,07,41,12.30
2015,08,29,07,42,6.40
2015,08,29,07,43,5.50
2015,08,29,07,44,7.00
2015,08,29,07,45,6.80
2015,08,29,07,46,9.70
2015,08,29,07,47,13.20
2015,08,29,07,48,10.50
2015,08,29,07,49,10.30
2015,08,29,07,50,6.50
2015,08,29,07,51,7.50
2015,08,29,07,52,12.00
2015,08,29,07,53,8.60
2015,08,29,07,54,7.90
2015,08,29,07,55,11.80
2015,08,29,07,56,15.20
2015,08,29,07,57,13.80
2015,08,29,07,58,9.00
2015,08,29,07,59,8.50
2015,08,29,08,00,10.50
2015,08,29,08,01,11.20
2015,08,29,08,02,13.40
2015,08,29,08,03,10.90
2015,08,29,08,04,14.10
2015,08,29,08,05,16.60
2015,08,29,08,06,23.40
2015,08,29,08,07,21.10
2015,08,29,08,08,10.30
2015,08,29,08,09,14.60
2015,08,29,08,10,17.10
2015,08,29,08,11,21.50
2015,08,29,08,12,14.80
2015,08,29,08,13,17.40
2015,08,29,08,14,11.30
2015,08,29,08,15,11.90
2015,08,29,08,16,9.20
2015,08,29,08,17,20.20
2015,08,29,08,18,20.60
2015,08,29,08,19,9.60
2015,08,29,08,20,14.30
2015,08,29,08,21,13.40
2015,08,29,08,22,9.30
2015,08,29,08,23,13.10
2015,08,29,08,24,14.10
2015,08,29,08,25,6.40
2015,08,29,08,26,18.50
2015,08,29,08,27,14.20
2015,08,29,08,28,15.20
2015,08,29,08,29,12.10
2015,08,29,08,30,15.70
2015,08,29,08,31,9.60
2015,08,29,08,32,7.60
2015,08,29,08,33,0.50
2015,08,29,08,34,11.00
2015,08,29,08,35,13.00
2015,08,29,08,36,15.40
2015,08,29,08,37,13.30
2015,08,29,08,38,23.20
2015,08,29,08,39,19.70
2015,08,29,08,40,21.30
2015,08,29,08,41,13.20
2015,08,29,08,42,17.10
2015,08,29,08,43,17.10
2015,08,29,08,44,33.10
2015,08,29,08,45,19.00
2015,08,29,08,46,17.40
2015,08,29,08,47,18.60
2015,08,29,08,48,29.30
2015,08,29,08,49,24.80
2015,08,29,08,50,24.50
2015,08,29,08,51,25.60
2015,08,29,08,52,17.80
2015,08,29,08,53,16.10
2015,08,29,08,54,16.90
2015,08,29,08,55,13.20
2015,08,29,08,56,21.30
2015,08,29,08,57,17.60
2015,08,29,08,58,16.20
2015,08,29,08,59,17.50
2015,08,29,09,00,10.70
2015,08,29,09,01,18.00
2015,08,29,09,02,14.20
2015,08,29,09,03,16.20
2015,08,29,09,04,20.80
2015,08,29,09,05,22.50
2015,08,29,09,06,15.40
2015,08,29,09,07,20.70
2015,08,29,09,08,20.30
2015,08,29,09,09,16.70
2015,08,29,09,10,17.60
2015,08,29,09,11,26.30
2015,08,29,09,12,22.50
2015,08,29,09,13,14.80
2015,08,29,09,14,23.20
2015,08,29,09,15,16.70
2015,08,29,09,16,19.20
2015,08,29,09,17,17.60
2015,08,29,09,18,15.50
2015,08,29,09,19,17.40
2015,08,29,09,20,18.30
2015,08,29,09,21,25.80
2015,08,29,09,22,23.30
2015,08,29,09,23,18.10
2015,08,29,09,24,27.30
2015,08,29,09,25,24.20
2015,08,29,09,26,24.30
2015,08,29,09,27,29.00
2015,08,29,09,28,22.80
2015,08,29,09,29,14.10
2015,08,29,09,30,18.10
2015,08,29,09,31,20.50
2015,08,29,09,32,23.30
2015,08,29,09,33,29.70
2015,08,29,09,34,28.00
2015,08,29,09,35,20.50
2015,08,29,09,36,19.60
2015,08,29,09,37,19.10
2015,08,29,09,38,28.00
2015,08,29,09,39,30.80
2015,08,29,09,40,21.40
2015,08,29,09,41,23.10
2015,08,29,09,42,21.00
2015,08,29,09,43,25.90
2015,08,29,09,44,24.10
2015,08,29,09,45,24.20
2015,08,29,09,46,23.40
2015,08,29,09,47,24.70
2015,08,29,09,48,28.10
2015,08,29,09,49,21.50
2015,08,29,09,50,19.90
2015,08,29,09,51,27.40
2015,08,29,09,52,32.60
2015,08,29,09,53,29.90
2015,08,29,09,54,20.30
2015,08,29,09,55,20.20
2015,08,29,09,56,19.60
2015,08,29,09,57,22.40
2015,08,29,09,58,24.60
2015,08,29,09,59,24.20
2015,08,29,10,00,25.30
2015,08,29,10,01,22.90
2015,08,29,10,02,22.00
2015,08,29,10,03,32.50
2015,08,29,10,04,27.20
2015,08,29,10,05,25.50
2015,08,29,10,06,29.80
2015,08,29,10,07,19.40
2015,08,29,10,08,18.20
2015,08,29,10,09,23.30
2015,08,29,10,10,20.90
2015,08,29,10,11,21.10
2015,08,29,10,12,21.40
2015,08,29,10,13,22.40
2015,08,29,10,14,27.40
2015,08,29,10,15,23.50
2015,08,29,10,16,8.50
2015,08,29,10,17,18.40
2015,08,29,10,18,24.00
2015,08,29,10,19,20.80
2015,08,29,10,20,17.20
2015,08,29,10,21,25.50
2015,08,29,10,22,20.80
2015,08,29,10,23,21.90
2015,08,29,10,24,30.00
2015,08,29,10,25,23.00
2015,08,29,10,26,19.20
2015,08,29,10,27,32.00
2015,08,29,10,28,26.60
2015,08,29,10,29,34.20
2015,08,29,10,30,26.20
2015,08,29,10,31,21.90
2015,08,29,10,32,22.30
2015,08,29,10,33,36.30
2015,08,29,10,34,31.50
2015,08,29,10,35,31.00
2015,08,29,10,36,19.70
2015,08,29,10,37,30.80
2015,08,29,10,38,24.00
2015,08,29,10,39,15.10
2015,08,29,10,40,20.20
2015,08,29,10,41,28.70
2015,08,29,10,42,26.00
2015,08,29,10,43,28.50
2015,08,29,10,44,27.70
2015,08,29,10,45,28.70
2015,08,29,10,46,33.20
2015,08,29,10,47,25.70
2015,08,29,10,48,32.50
2015,08,29,10,49,30.60
2015,08,29,10,50,29.80
2015,08,29,10,51,36.00
2015,08,29,10,52,32.70
2015,08,29,10,53,31.00
2015,08,29,10,54,31.40
2015,08,29,10,55,36.00
2015,08,29,10,56,32.40
2015,08,29,10,57,31.00
2015,08,29,10,58,26.00
2015,08,29,10,59,28.50
2015,08,29,11,00,32.60
2015,08,29,11,01,26.60
2015,08,29,11,02,26.20
2015,08,29,11,03,30.00
2015,08,29,11,04,34.80
2015,08,29,11,05,27.20
2015,08,29,11,06,28.70
2015,08,29,11,07,27.40
2015,08,29,11,08,28.60
2015,08,29,11,09,31.60
2015,08,29,11,10,28.50
2015,08,29,11,11,25.00
2015,08,29,11,12,30.90
2015,08,29,11,13,26.60
2015,08,29,11,14,25.70
2015,08,29,11,15,21.70
2015,08,29,11,16,25.50
2015,08,29,11,17,38.80
2015,08,29,11,18,25.90
2015,08,29,11,19,40.70
2015,08,29,11,20,36.90
2015,08,29,11,21,33.80
2015,08,29,11,22,34.10
2015,08,29,11,23,22.00
2015,08,29,11,24,28.10
2015,08,29,11,25,25.10
2015,08,29,11,26,25.50
2015,08,29,11,27,28.20
2015,08,29,11,28,29.80
2015,08,29,11,29,35.60
2015,08,29,11,30,25.00
2015,08,29,11,31,23.50
2015,08,29,11,32,26.90
2015,08,29,11,33,24.90
2015,08,29,11,34,23.20
2015,08,29,11,35,21.50
2015,08,29,11,36,30.20
2015,08,29,11,37,34.00
2015,08,29,11,38,28.20
2015,08,29,11,39,24.10
2015,08,29,11,40,29.00
2015,08,29,11,41,16.80
2015,08,29,11,42,30.60
2015,08,29,11,43,24.30
2015,08,29,11,44,20.20
2015,08,29,11,45,28.00
2015,08,29,11,46,29.70
2015,08,29,11,47,29.00
2015,08,29,11,48,19.50
2015,08,29,11,49,26.70
2015,08,29,11,50,22.00
2015,08,29,11,51,24.80
2015,08,29,11,52,22.30
2015,08,29,11,53,20.10
2015,08,29,11,54,27.00
2015,08,29,11,55,26.60
2015,08,29,11,56,23.30
2015,08,29,11,57,24.30
2015,08,29,11,58,22.20
2015,08,29,11,59,18.60
2015,08,29,12,00,22.40
2015,08,29,12,01,17.90
2015,08,29,12,02,25.50
2015,08,29,12,03,20.40
2015,08,29,12,04,22.90
2015,08,29,12,05,25.50
2015,08,29,12,06,20.50
2015,08,29,12,07,28.90
2015,08,29,12,08,24.10
2015,08,29,12,09,22.60
2015,08,29,12,10,14.00
2015,08,29,12,11,25.90
2015,08,29,12,12,16.90
2015,08,29,12,13,19.00
2015,08,29,12,14,16.40
2015,08,29,12,15,16.60
2015,08,29,12,16,18.00
2015,08,29,12,17,17.80
2015,08,29,12,18,20.00
2015,08,29,12,19,14.50
2015,08,29,12,20,10.50
2015,08,29,12,21,6.60
2015,08,29,12,22,9.10
2015,08,29,12,23,17.40
2015,08,29,12,24,18.00
2015,08,29,12,25,20.00
2015,08,29,12,26,10.80
2015,08,29,12,27,17.30
2015,08,29,12,28,18.70
2015,08,29,12,29,22.60
2015,08,29,12,30,17.80
2015,08,29,12,31,15.60
2015,08,29,12,32,14.40
2015,08,29,12,33,17.00
2015,08,29,12,34,18.90
2015,08,29,12,35,19.50
2015,08,29,12,36,18.60
2015,08,29,12,37,16.70
2015,08,29,12,38,10.00
2015,08,29,12,39,11.60
2015,08,29,12,40,13.40
2015,08,29,12,41,11.00
2015,08,29,12,42,17.20
2015,08,29,12,43,17.80
2015,08,29,12,44,11.80
2015,08,29,12,45,13.30
2015,08,29,12,46,9.70
2015,08,29,12,47,10.00
2015,08,29,12,48,15.20
2015,08,29,12,49,12.80
2015,08,29,12,50,9.90
2015,08,29,12,51,13.90
2015,08,29,12,52,20.00
2015,08,29,12,53,22.50
2015,08,29,12,54,27.00
2015,08,29,12,55,24.50
2015,08,29,12,56,17.00
2015,08,29,12,57,18.20
2015,08,29,12,58,13.80
2015,08,29,12,59,9.40
2015,08,29,13,00,10.30
2015,08,29,13,01,17.40
2015,08,29,13,02,19.00
2015,08,29,13,03,19.50
2015,08,29,13,04,15.50
2015,08,29,13,05,7.80
2015,08,29,13,06,14.70
2015,08,29,13,07,12.30
2015,08,29,13,08,15.00
2015,08,29,13,09,10.90
2015,08,29,13,10,8.60
2015,08,29,13,11,3.30
2015,08,29,13,12,7.50
2015,08,29,13,13,10.30
2015,08,29,13,14,10.50
2015,08,29,13,15,13.00
2015,08,29,13,16,14.40
2015,08,29,13,17,13.50
2015,08,29,13,18,16.50
2015,08,29,13,19,11.30
2015,08,29,13,20,13.20
2015,08,29,13,21,11.50
2015,08,29,13,22,11.60
2015,08,29,13,23,10.00
2015,08,29,13,24,9.20
2015,08,29,13,25,8.70
2015,08,29,13,26,5.30
2015,08,29,13,27,8.90
2015,08,29,13,28,10.20
2015,08,29,13,29,10.00
2015,08,29,13,30,8.70
2015,08,29,13,31,11.90
2015,08,29,13,32,10.90
2015,08,29,13,33,11.10
2015,08,29,13,34,11.00
2015,08,29,13,35,10.80
2015,08,29,13,36,8.50
2015,08,29,13,37,5.60
2015,08,29,13,38,9.20
2015,08,29,13,39,6.00
2015,08,29,13,40,7.40
2015,08,29,13,41,9.70
2015,08,29,13,42,9.60
2015,08,29,13,43,7.50
2015,08,29,13,44,6.40
2015,08,29,13,45,7.00
2015,08,29,13,46,11.40
2015,08,29,13,47,9.70
2015,08,29,13,48,8.40
2015,08,29,13,49,9.70
2015,08,29,13,50,12.30
2015,08,29,13,51,11.10
2015,08,29,13,52,13.30
2015,08,29,13,53,13.60
2015,08,29,13,54,11.00
2015,08,29,13,55,11.00
2015,08,29,13,56,13.60
2015,08,29,13,57,13.00
2015,08,29,13,58,12.60
2015,08,29,13,59,8.50
2015,08,29,14,00,12.20
2015,08,29,14,01,18.10
2015,08,29,14,02,15.40
2015,08,29,14,03,19.30
2015,08,29,14,04,16.40
2015,08,29,14,05,21.80
2015,08,29,14,06,28.30
2015,08,29,14,07,24.60
2015,08,29,14,08,37.30
2015,08,29,14,09,29.00
2015,08,29,14,10,26.40
2015,08,29,14,11,23.50
2015,08,29,14,12,25.50
2015,08,29,14,13,24.10
2015,08,29,14,14,21.50
2015,08,29,14,15,23.90
2015,08,29,14,16,22.90
2015,08,29,14,17,15.70
2015,08,29,14,18,15.90
2015,08,29,14,19,14.10
2015,08,29,14,20,25.50
2015,08,29,14,21,16.00
2015,08,29,14,22,30.20
2015,08,29,14,23,14.70
2015,08,29,14,24,18.80
2015,08,29,14,25,31.50
2015,08,29,14,26,22.00
2015,08,29,14,27,14.20
2015,08,29,14,28,20.20
2015,08,29,14,29,25.70
2015,08,29,14,30,13.60
2015,08,29,14,31,19.90
2015,08,29,14,32,31.10
2015,08,29,14,33,37.00
2015,08,29,14,34,27.00
2015,08,29,14,35,21.40
2015,08,29,14,36,22.20
2015,08,29,14,37,16.30
2015,08,29,14,38,26.40
2015,08,29,14,39,24.90
2015,08,29,14,40,21.40
2015,08,29,14,41,31.70
2015,08,29,14,42,22.00
2015,08,29,14,43,28.00
2015,08,29,14,44,18.40
2015,08,29,14,45,29.00
2015,08,29,14,46,30.40
2015,08,29,14,47,19.80
2015,08,29,14,48,13.20
2015,08,29,14,49,33.30
2015,08,29,14,50,27.30
2015,08,29,14,51,26.20
2015,08,29,14,52,21.90
2015,08,29,14,53,28.90
2015,08,29,14,54,19.00
2015,08,29,14,55,27.10
2015,08,29,14,56,19.60
2015,08,29,14,57,18.60
2015,08,29,14,58,16.40
2015,08,29,14,59,18.00
2015,08,29,15,00,14.80
2015,08,29,15,01,16.00
2015,08,29,15,02,25.00
2015,08,29,15,03,12.70
2015,08,29,15,04,12.60
2015,08,29,15,05,18.00
2015,08,29,15,06,21.60
2015,08,29,15,07,15.30
2015,08,29,15,08,12.90
2015,08,29,15,09,27.40
2015,08,29,15,10,22.00
2015,08,29,15,11,19.00
2015,08,29,15,12,18.80
2015,08,29,15,13,13.60
2015,08,29,15,14,20.70
2015,08,29,15,15,12.70
2015,08,29,15,16,12.60
2015,08,29,15,17,9.00
2015,08,29,15,18,12.10
2015,08,29,15,19,11.60
2015,08,29,15,20,16.20
2015,08,29,15,21,10.80
2015,08,29,15,22,17.20
2015,08,29,15,23,11.40
2015,08,29,15,24,7.70
2015,08,29,15,25,13.90
2015,08,29,15,26,21.50
2015,08,29,15,27,19.80
2015,08,29,15,28,16.40
2015,08,29,15,29,11.40
2015,08,29,15,30,13.00
2015,08,29,15,31,15.90
2015,08,29,15,32,13.30
2015,08,29,15,33,8.70
2015,08,29,15,34,5.90
2015,08,29,15,35,11.50
2015,08,29,15,36,11.20
2015,08,29,15,37,7.60
2015,08,29,15,38,6.80
2015,08,29,15,39,5.60
2015,08,29,15,40,4.80
2015,08,29,15,41,1.70
2015,08,29,15,42,3.10
2015,08,29,15,43,8.10
2015,08,29,15,44,2.80
2015,08,29,15,45,4.20
2015,08,29,15,46,5.90
2015,08,29,15,47,10.50
2015,08,29,15,48,5.70
2015,08,29,15,49,3.90
2015,08,29,15,50,2.60
2015,08,29,15,51,2.70
2015,08,29,15,52,6.70
2015,08,29,15,53,1.10
2015,08,29,15,54,3.10
2015,08,29,15,55,1.50
2015,08,29,15,56,2.20
2015,08,29,15,57,1.70
2015,08,29,15,58,2.90
2015,08,29,15,59,0.30
2015,08,29,16,00,0.00
2015,08,29,16,01,0.20
2015,08,29,16,02,2.30
2015,08,29,16,03,4.50
2015,08,29,16,04,11.10
2015,08,29,16,05,8.80
2015,08,29,16,06,7.70
2015,08,29,16,07,7.30
2015,08,29,16,08,3.70
2015,08,29,16,09,7.80
2015,08,29,16,10,11.30
2015,08,29,16,11,10.00
2015,08,29,16,12,11.40
2015,08,29,16,13,12.50
2015,08,29,16,14,12.50
2015,08,29,16,15,11.90
2015,08,29,16,16,15.30
2015,08,29,16,17,12.40
2015,08,29,16,18,8.50
2015,08,29,16,19,10.90
2015,08,29,16,20,10.20
2015,08,29,16,21,8.80
2015,08,29,16,22,7.10
2015,08,29,16,23,9.60
2015,08,29,16,24,10.00
2015,08,29,16,25,12.40
2015,08,29,16,26,10.20
2015,08,29,16,27,14.80
2015,08,29,16,28,14.10
2015,08,29,16,29,13.90
2015,08,29,16,30,13.90
2015,08,29,16,31,13.70
2015,08,29,16,32,13.30
2015,08,29,16,33,13.90
2015,08,29,16,34,12.60
2015,08,29,16,35,13.00
2015,08,29,16,36,13.10
2015,08,29,16,37,10.10
2015,08,29,16,38,10.20
2015,08,29,16,39,11.60
2015,08,29,16,40,10.60
2015,08,29,16,41,7.20
2015,08,29,16,42,9.80
2015,08,29,16,43,5.40
2015,08,29,16,44,4.10
2015,08,29,16,45,4.50
2015,08,29,16,46,3.00
2015,08,29,16,47,7.80
2015,08,29,16,48,6.20
2015,08,29,16,49,7.80
2015,08,29,16,50,7.70
2015,08,29,16,51,9.40
2015,08,29,16,52,12.10
2015,08,29,16,53,10.20
2015,08,29,16,54,9.50
2015,08,29,16,55,8.70
2015,08,29,16,56,11.00
2015,08,29,16,57,7.00
2015,08,29,16,58,7.60
2015,08,29,16,59,5.90
2015,08,29,17,00,6.40
2015,08,29,17,01,5.50
2015,08,29,17,02,4.70
2015,08,29,17,03,7.80
2015,08,29,17,04,5.20
2015,08,29,17,05,7.00
2015,08,29,17,06,5.30
2015,08,29,17,07,3.00
2015,08,29,17,08,2.40
2015,08,29,17,09,3.60
2015,08,29,17,10,5.50
2015,08,29,17,11,6.20
2015,08,29,17,12,1.50
2015,08,29,17,13,0.40
2015,08,29,17,14,0.00
2015,08,29,17,15,1.40
2015,08,29,17,16,2.00
2015,08,29,17,17,0.10
2015,08,29,17,18,0.10
2015,08,29,17,19,0.10
2015,08,29,17,20,0.20
2015,08,29,17,21,3.20
2015,08,29,17,22,6.10
2015,08,29,17,23,4.00
2015,08,29,17,24,2.00
2015,08,29,17,25,0.10
2015,08,29,17,26,0.00
2015,08,29,17,27,1.10
2015,08,29,17,28,0.10
2015,08,29,17,29,0.00
2015,08,29,17,30,0.40
2015,08,29,17,31,0.00
2015,08,29,17,32,0.00
2015,08,29,17,33,0.00
2015,08,29,17,34,0.00
2015,08,29,17,35,0.10
2015,08,29,17,36,1.70
2015,08,29,17,37,6.50
2015,08,29,17,38,7.80
2015,08,29,17,39,7.00